Powrót do katalogu

FENGYUN 1C DEB

AktywnyPO
NORAD 31952·DEBRIS·🇨🇳 China

Wystrzelony May 10, 1999 z Taiyuan Satellite Launch Center

Loading…

Następne Przeloty (najbliższe 24 godziny)

TLE

ŚwieżeSource: Space-Track

Epoka: Sep 13, 2026, 08:26 UTC

1 31952U 99025CND 26256.35194322  .00001784  00000-0  39612-3 0  9999
2 31952  98.9884  38.0351 0112877 181.9093 178.1686 14.54617452 11890

Śledź FENGYUN 1C DEB w czasie rzeczywistym z AllMySat

Download on the App Store